Location: Recife
(8.0585°S, 34.8848°W)
Time: 11:15:06
(UTC-03:00)

S-56A Canister/Altair - Pass Details

Date: 21 April 2026
Orbit: 633 x 2484 km, 38.9° (Epoch: 20 May)

Event Time Altitude Azimuth Distance (km) Brightness Sun altitude
Rises 01:00:20 0° 277° (W) 3,384 - -64.6°
Reaches altitude 10° 01:04:36 10° 309° (NW) 2,771 - -63.6°
Maximum altitude 01:06:55 12° 329° (NNW) 2,822 - -63.0°
Drops below altitude 10° 01:09:31 10° 349° (N) 3,181 - -62.4°
Exits shadow 01:15:12 - 16° (NNE) 4,566 11.6 -61.0°
Sets 01:15:35 0° 18° (NNE) 4,672 11.7 -60.9°
